Time,TemperatureF,DewpointF,PressureIn,WindDirection,WindDirectionDegrees,WindSpeedMPH,WindSpeedGustMPH,Humidity,HourlyPrecipIn,Conditions,Clouds,dailyrainin,SolarRadiationWatts/m^2,SoftwareType,DateUTC
2013-03-10 00:07:00,33.3,30.0,30.34,NNE,27,0.0,5.0,89,0.00,,,0.00,0,weatherlink.com 1.10,2013-03-10 05:07:00,
2013-03-10 00:22:00,32.4,29.0,30.34,NNE,26,0.0,5.0,88,0.00,,,0.00,0,weatherlink.com 1.10,2013-03-10 05:22:00,
2013-03-10 00:37:00,31.7,29.0,30.34,NNE,19,3.0,6.0,90,0.00,,,0.00,0,weatherlink.com 1.10,2013-03-10 05:37:00,
2013-03-10 00:52:00,32.1,30.0,30.34,North,5,3.0,7.0,90,0.00,,,0.00,0,weatherlink.com 1.10,2013-03-10 05:52:00,
2013-03-10 01:07:00,32.1,30.0,30.35,North,355,2.0,8.0,90,0.00,,,0.00,0,weatherlink.com 1.10,2013-03-10 06:07:00,
2013-03-10 01:22:00,32.1,30.0,30.35,North,355,2.0,8.0,91,0.00,,,0.00,0,weatherlink.com 1.10,2013-03-10 06:22:00,
2013-03-10 01:37:00,31.9,30.0,30.35,North,350,5.0,9.0,91,0.00,,,0.00,0,weatherlink.com 1.10,2013-03-10 06:37:00,
2013-03-10 01:52:00,32.0,30.0,30.35,NNW,347,2.0,8.0,91,0.00,,,0.00,0,weatherlink.com 1.10,2013-03-10 06:52:00,
2013-03-10 03:07:00,31.7,29.0,30.35,NNW,345,3.0,8.0,90,0.00,,,0.00,0,weatherlink.com 1.10,2013-03-10 07:07:00,
2013-03-10 03:22:00,31.6,29.0,30.34,NNW,346,4.0,10.0,91,0.00,,,0.00,0,weatherlink.com 1.10,2013-03-10 07:22:00,
2013-03-10 03:37:00,31.9,30.0,30.34,NNW,344,2.0,9.0,91,0.00,,,0.00,0,weatherlink.com 1.10,2013-03-10 07:37:00,
2013-03-10 03:53:00,32.0,29.0,30.35,NNW,344,3.0,10.0,90,0.00,,,0.00,0,weatherlink.com 1.10,2013-03-10 07:53:00,
2013-03-10 04:08:00,32.0,29.0,30.35,NNW,344,4.0,11.0,90,0.00,,,0.00,0,weatherlink.com 1.10,2013-03-10 08:08:00,
2013-03-10 04:23:00,31.9,29.0,30.35,NNW,346,7.0,9.0,90,0.00,,,0.00,0,weatherlink.com 1.10,2013-03-10 08:23:00,
2013-03-10 04:38:00,31.5,29.0,30.35,North,350,4.0,9.0,90,0.00,,,0.00,0,weatherlink.com 1.10,2013-03-10 08:38:00,
2013-03-10 04:53:00,31.3,29.0,30.36,NNW,346,5.0,9.0,90,0.00,,,0.00,0,weatherlink.com 1.10,2013-03-10 08:53:00,
2013-03-10 05:08:00,31.2,29.0,30.35,NNW,346,0.0,9.0,90,0.00,,,0.00,0,weatherlink.com 1.10,2013-03-10 09:08:00,
2013-03-10 05:23:00,31.1,29.0,30.35,NNW,346,0.0,5.0,90,0.00,,,0.00,0,weatherlink.com 1.10,2013-03-10 09:23:00,
2013-03-10 05:38:00,30.9,28.0,30.36,NNW,346,1.0,6.0,90,0.00,,,0.00,0,weatherlink.com 1.10,2013-03-10 09:38:00,
2013-03-10 05:53:00,30.9,28.0,30.35,NNW,346,3.0,5.0,90,0.00,,,0.00,0,weatherlink.com 1.10,2013-03-10 09:53:00,
2013-03-10 06:08:00,31.0,29.0,30.36,NNW,346,0.0,6.0,90,0.00,,,0.00,0,weatherlink.com 1.10,2013-03-10 10:08:00,
2013-03-10 06:23:00,31.1,29.0,30.36,NNW,346,0.0,5.0,90,0.00,,,0.00,0,weatherlink.com 1.10,2013-03-10 10:23:00,
2013-03-10 06:38:00,30.7,28.0,30.36,NNW,346,0.0,0.0,90,0.00,,,0.00,0,weatherlink.com 1.10,2013-03-10 10:38:00,
2013-03-10 06:53:00,30.6,28.0,30.36,NNW,346,0.0,8.0,91,0.00,,,0.00,0,weatherlink.com 1.10,2013-03-10 10:53:00,
2013-03-10 07:08:00,31.0,29.0,30.36,NNW,346,3.0,5.0,91,0.00,,,0.00,7,weatherlink.com 1.10,2013-03-10 11:08:00,
2013-03-10 07:23:00,31.8,30.0,30.36,NNW,346,4.0,6.0,91,0.00,,,0.00,19,weatherlink.com 1.10,2013-03-10 11:23:00,
2013-03-10 07:38:00,32.9,31.0,30.36,North,5,5.0,10.0,92,0.00,,,0.00,37,weatherlink.com 1.10,2013-03-10 11:38:00,
2013-03-10 07:53:00,33.8,32.0,30.37,North,9,0.0,7.0,91,0.00,,,0.00,58,weatherlink.com 1.10,2013-03-10 11:53:00,
2013-03-10 08:09:00,34.2,32.0,30.38,North,9,4.0,8.0,91,0.00,,,0.00,62,weatherlink.com 1.10,2013-03-10 12:09:00,
2013-03-10 08:23:00,34.0,31.0,30.38,North,9,0.0,4.0,89,0.00,,,0.00,56,weatherlink.com 1.10,2013-03-10 12:23:00,
2013-03-10 08:38:00,34.1,31.0,30.38,North,5,4.0,8.0,89,0.00,,,0.00,93,weatherlink.com 1.10,2013-03-10 12:38:00,
2013-03-10 08:53:00,34.5,32.0,30.39,North,5,5.0,7.0,89,0.00,,,0.00,100,weatherlink.com 1.10,2013-03-10 12:53:00,
2013-03-10 09:08:00,34.8,32.0,30.39,North,5,0.0,7.0,88,0.00,,,0.00,125,weatherlink.com 1.10,2013-03-10 13:08:00,
2013-03-10 09:23:00,35.5,32.0,30.39,North,5,4.0,8.0,88,0.00,,,0.00,135,weatherlink.com 1.10,2013-03-10 13:23:00,
2013-03-10 09:38:00,36.1,33.0,30.39,North,5,0.0,8.0,87,0.00,,,0.00,148,weatherlink.com 1.10,2013-03-10 13:38:00,
2013-03-10 09:53:00,36.7,33.0,30.39,North,5,3.0,7.0,86,0.00,,,0.00,155,weatherlink.com 1.10,2013-03-10 13:53:00,
2013-03-10 10:08:00,37.2,33.0,30.40,North,5,3.0,7.0,85,0.00,,,0.00,190,weatherlink.com 1.10,2013-03-10 14:08:00,
2013-03-10 10:23:00,37.8,33.0,30.39,North,9,5.0,9.0,84,0.00,,,0.00,216,weatherlink.com 1.10,2013-03-10 14:23:00,
2013-03-10 10:38:00,38.2,33.0,30.40,NNE,17,0.0,7.0,82,0.00,,,0.00,255,weatherlink.com 1.10,2013-03-10 14:38:00,
2013-03-10 10:53:00,38.2,33.0,30.40,NNE,17,0.0,8.0,82,0.00,,,0.00,204,weatherlink.com 1.10,2013-03-10 14:53:00,
2013-03-10 11:08:00,38.5,33.0,30.40,NNE,17,0.0,7.0,81,0.00,,,0.00,288,weatherlink.com 1.10,2013-03-10 15:08:00,
2013-03-10 11:23:00,39.1,33.0,30.40,NNE,17,6.0,6.0,79,0.00,,,0.00,290,weatherlink.com 1.10,2013-03-10 15:23:00,
2013-03-10 11:39:00,39.1,32.0,30.40,NNE,17,5.0,9.0,77,0.00,,,0.00,132,weatherlink.com 1.10,2013-03-10 15:39:00,
2013-03-10 11:54:00,38.6,33.0,30.39,ENE,66,5.0,10.0,79,0.00,,,0.00,221,weatherlink.com 1.10,2013-03-10 15:54:00,
2013-03-10 12:09:00,39.0,33.0,30.39,ENE,68,2.0,10.0,78,0.00,,,0.00,295,weatherlink.com 1.10,2013-03-10 16:09:00,
2013-03-10 12:24:00,39.4,33.0,30.39,ENE,69,2.0,9.0,77,0.00,,,0.00,315,weatherlink.com 1.10,2013-03-10 16:24:00,
2013-03-10 12:39:00,39.7,33.0,30.38,ENE,76,9.0,10.0,76,0.00,,,0.00,338,weatherlink.com 1.10,2013-03-10 16:39:00,
2013-03-10 12:54:00,39.8,32.0,30.38,East,82,10.0,10.0,75,0.00,,,0.00,345,weatherlink.com 1.10,2013-03-10 16:54:00,
2013-03-10 13:09:00,40.1,32.0,30.38,East,85,0.0,8.0,74,0.00,,,0.00,350,weatherlink.com 1.10,2013-03-10 17:09:00,
2013-03-10 13:24:00,40.0,33.0,30.37,East,85,3.0,8.0,75,0.00,,,0.00,279,weatherlink.com 1.10,2013-03-10 17:24:00,
2013-03-10 13:39:00,39.7,32.0,30.37,East,94,1.0,11.0,75,0.00,,,0.00,206,weatherlink.com 1.10,2013-03-10 17:39:00,
2013-03-10 13:54:00,39.5,33.0,30.36,East,94,3.0,9.0,77,0.00,,,0.00,190,weatherlink.com 1.10,2013-03-10 17:54:00,
2013-03-10 14:09:00,39.5,33.0,30.36,East,94,1.0,8.0,76,0.00,,,0.00,172,weatherlink.com 1.10,2013-03-10 18:09:00,
2013-03-10 14:24:00,39.0,32.0,30.36,East,94,3.0,9.0,77,0.00,,,0.00,74,weatherlink.com 1.10,2013-03-10 18:24:00,
2013-03-10 14:39:00,38.9,32.0,30.36,East,94,0.0,7.0,77,0.00,,,0.00,56,weatherlink.com 1.10,2013-03-10 18:39:00,
2013-03-10 14:54:00,39.0,32.0,30.36,East,94,0.0,7.0,77,0.00,,,0.00,54,weatherlink.com 1.10,2013-03-10 18:54:00,
2013-03-10 15:09:00,39.1,33.0,30.35,East,94,5.0,8.0,78,0.00,,,0.00,53,weatherlink.com 1.10,2013-03-10 19:09:00,
2013-03-10 15:24:00,39.2,33.0,30.35,East,94,2.0,8.0,78,0.00,,,0.00,49,weatherlink.com 1.10,2013-03-10 19:24:00,
2013-03-10 15:39:00,39.2,33.0,30.35,East,94,5.0,7.0,77,0.00,,,0.00,56,weatherlink.com 1.10,2013-03-10 19:39:00,
2013-03-10 15:54:00,39.1,33.0,30.34,East,94,5.0,7.0,78,0.00,,,0.00,51,weatherlink.com 1.10,2013-03-10 19:54:00,
2013-03-10 16:09:00,39.0,32.0,30.35,East,94,1.0,9.0,77,0.00,,,0.00,67,weatherlink.com 1.10,2013-03-10 20:09:00,
2013-03-10 16:24:00,38.7,32.0,30.35,East,94,0.0,5.0,78,0.00,,,0.00,88,weatherlink.com 1.10,2013-03-10 20:24:00,
2013-03-10 16:39:00,38.9,33.0,30.34,East,94,3.0,7.0,79,0.00,,,0.00,70,weatherlink.com 1.10,2013-03-10 20:39:00,
2013-03-10 16:54:00,38.8,33.0,30.35,East,94,0.0,7.0,79,0.00,,,0.00,83,weatherlink.com 1.10,2013-03-10 20:54:00,
2013-03-10 17:09:00,38.7,33.0,30.35,East,94,0.0,8.0,79,0.00,,,0.00,30,weatherlink.com 1.10,2013-03-10 21:09:00,
2013-03-10 17:24:00,38.2,33.0,30.34,East,94,5.0,7.0,80,0.00,,,0.00,26,weatherlink.com 1.10,2013-03-10 21:24:00,
2013-03-10 17:39:00,37.8,32.0,30.34,East,94,0.0,7.0,80,0.00,,,0.00,25,weatherlink.com 1.10,2013-03-10 21:39:00,
2013-03-10 17:54:00,37.5,32.0,30.33,East,94,2.0,7.0,81,0.00,,,0.00,19,weatherlink.com 1.10,2013-03-10 21:54:00,
2013-03-10 18:09:00,37.4,32.0,30.33,East,94,0.0,9.0,82,0.00,,,0.00,14,weatherlink.com 1.10,2013-03-10 22:09:00,
2013-03-10 18:24:00,37.3,32.0,30.33,East,94,0.0,6.0,82,0.00,,,0.00,9,weatherlink.com 1.10,2013-03-10 22:24:00,
2013-03-10 18:39:00,37.1,32.0,30.34,East,94,0.0,6.0,83,0.00,,,0.00,0,weatherlink.com 1.10,2013-03-10 22:39:00,
2013-03-10 18:54:00,37.1,33.0,30.34,East,94,5.0,7.0,84,0.00,,,0.00,0,weatherlink.com 1.10,2013-03-10 22:54:00,
2013-03-10 19:09:00,37.1,33.0,30.34,ESE,108,1.0,9.0,84,0.00,,,0.00,0,weatherlink.com 1.10,2013-03-10 23:09:00,
2013-03-10 19:24:00,36.9,33.0,30.34,ESE,119,2.0,10.0,84,0.00,,,0.00,0,weatherlink.com 1.10,2013-03-10 23:24:00,
2013-03-10 19:39:00,36.9,33.0,30.34,SE,139,1.0,10.0,84,0.00,,,0.00,0,weatherlink.com 1.10,2013-03-10 23:39:00,
2013-03-10 19:54:00,37.0,33.0,30.34,SE,139,1.0,8.0,84,0.00,,,0.00,0,weatherlink.com 1.10,2013-03-10 23:54:00,
2013-03-10 20:09:00,37.0,33.0,30.33,SE,140,7.0,9.0,84,0.00,,,0.00,0,weatherlink.com 1.10,2013-03-11 00:09:00,
2013-03-10 20:24:00,37.0,33.0,30.33,SE,144,5.0,10.0,84,0.00,,,0.00,0,weatherlink.com 1.10,2013-03-11 00:24:00,
2013-03-10 20:39:00,36.9,33.0,30.34,SE,146,5.0,10.0,84,0.00,,,0.00,0,weatherlink.com 1.10,2013-03-11 00:39:00,
2013-03-10 20:54:00,36.9,33.0,30.34,SE,146,0.0,7.0,84,0.00,,,0.00,0,weatherlink.com 1.10,2013-03-11 00:54:00,
2013-03-10 21:09:00,36.7,33.0,30.34,SE,146,0.0,7.0,85,0.00,,,0.00,0,weatherlink.com 1.10,2013-03-11 01:09:00,
2013-03-10 21:24:00,36.6,33.0,30.34,SE,146,2.0,8.0,85,0.00,,,0.00,0,weatherlink.com 1.10,2013-03-11 01:24:00,
2013-03-10 21:39:00,36.6,33.0,30.34,SE,146,0.0,8.0,85,0.00,,,0.00,0,weatherlink.com 1.10,2013-03-11 01:39:00,
2013-03-10 21:54:00,36.5,32.0,30.32,SE,146,3.0,8.0,85,0.00,,,0.00,0,weatherlink.com 1.10,2013-03-11 01:54:00,
2013-03-10 22:09:00,36.5,32.0,30.32,SSE,148,0.0,7.0,85,0.00,,,0.00,0,weatherlink.com 1.10,2013-03-11 02:09:00,
2013-03-10 22:24:00,36.5,32.0,30.32,SSE,148,0.0,8.0,85,0.00,,,0.00,0,weatherlink.com 1.10,2013-03-11 02:24:00,
2013-03-10 22:39:00,36.4,33.0,30.32,SSE,149,1.0,9.0,86,0.00,,,0.00,0,weatherlink.com 1.10,2013-03-11 02:39:00,
2013-03-10 22:54:00,36.4,33.0,30.32,SSE,153,1.0,9.0,86,0.00,,,0.00,0,weatherlink.com 1.10,2013-03-11 02:54:00,
2013-03-10 23:09:00,36.3,33.0,30.32,SSE,163,1.0,9.0,86,0.00,,,0.00,0,weatherlink.com 1.10,2013-03-11 03:09:00,
2013-03-10 23:24:00,36.3,33.0,30.32,SSW,194,5.0,12.0,86,0.00,,,0.00,0,weatherlink.com 1.10,2013-03-11 03:24:00,
2013-03-10 23:39:00,36.3,33.0,30.32,SSW,202,7.0,10.0,87,0.00,,,0.00,0,weatherlink.com 1.10,2013-03-11 03:39:00,
2013-03-10 23:54:00,36.4,33.0,30.31,SSW,207,8.0,10.0,87,0.00,,,0.00,0,weatherlink.com 1.10,2013-03-11 03:54:00,